N126YK KBVU-KVGT

Flight info

Callsign N126YK
Flight time N/A
Altitude 6000
Route LAS
Aircraft TBM9/L-VGD/C

Departure

Time 2026-04-24 00:27
Airport Boulder City Municipal Airport (KBVU)

Arrival

Time N/A
Airport North Las Vegas Airport (KVGT)
Time Latitude Longitude Altitude Speed Heading
2026-04-24 00:22 35.94797 -114.85613 2140 ft 0 kts 190°
2026-04-24 00:24 35.94781 -114.85575 2140 ft 13 kts 94°
2026-04-24 00:24 35.94766 -114.85434 2141 ft 8 kts 107°
2026-04-24 00:25 35.94751 -114.85348 2141 ft 12 kts 101°
2026-04-24 00:25 35.94747 -114.85319 2141 ft 0 kts 94°
2026-04-24 00:26 35.94732 -114.85278 2141 ft 17 kts 141°
2026-04-24 00:26 35.94552 -114.85302 2142 ft 27 kts 194°
2026-04-24 00:27 35.94558 -114.85543 2139 ft 56 kts 279°
2026-04-24 00:27 35.94652 -114.86290 2167 ft 117 kts 282°
2026-04-24 00:27 35.94777 -114.87337 2703 ft 128 kts 278°
2026-04-24 00:27 35.94842 -114.88441 3399 ft 130 kts 259°
2026-04-24 00:28 35.94435 -114.89432 4099 ft 130 kts 240°
2026-04-24 00:28 35.93957 -114.90489 4404 ft 161 kts 243°
2026-04-24 00:28 35.93360 -114.91861 4415 ft 199 kts 243°
2026-04-24 00:28 35.92670 -114.93465 4418 ft 222 kts 243°
2026-04-24 00:29 35.91926 -114.95210 4413 ft 236 kts 243°
2026-04-24 00:29 35.91008 -114.96917 4402 ft 243 kts 226°
2026-04-24 00:29 35.89538 -114.97951 4391 ft 248 kts 196°
2026-04-24 00:29 35.87816 -114.97972 4391 ft 252 kts 168°
2026-04-24 00:30 35.86277 -114.96964 4387 ft 254 kts 139°
2026-04-24 00:30 35.85301 -114.95169 4383 ft 255 kts 110°
2026-04-24 00:30 35.85163 -114.93046 4665 ft 243 kts 78°
2026-04-24 00:30 35.85918 -114.91348 5438 ft 216 kts 42°
2026-04-24 00:31 35.87158 -114.90582 6414 ft 188 kts 14°
2026-04-24 00:31 35.88335 -114.90204 7407 ft 162 kts 13°
2026-04-24 00:31 35.89368 -114.89870 8300 ft 146 kts 13°
2026-04-24 00:31 35.90317 -114.89564 9111 ft 136 kts 13°
2026-04-24 00:32 35.91214 -114.89328 9842 ft 129 kts 357°
2026-04-24 00:32 35.92185 -114.89619 10001 ft 165 kts 341°
2026-04-24 00:32 35.93403 -114.90108 10016 ft 202 kts 342°
2026-04-24 00:32 35.94833 -114.90676 10016 ft 228 kts 342°
2026-04-24 00:33 35.96398 -114.91297 10012 ft 243 kts 342°
2026-04-24 00:33 35.98045 -114.91949 10012 ft 252 kts 342°
2026-04-24 00:33 35.99739 -114.92617 10010 ft 258 kts 342°
2026-04-24 00:33 36.01461 -114.93297 10009 ft 261 kts 342°
2026-04-24 00:34 36.03197 -114.93984 10007 ft 263 kts 342°
2026-04-24 00:34 36.04940 -114.94676 10003 ft 263 kts 342°
2026-04-24 00:34 36.06685 -114.95368 9996 ft 264 kts 342°
2026-04-24 00:34 36.08433 -114.96061 10011 ft 264 kts 342°
2026-04-24 00:35 36.10185 -114.96754 9958 ft 264 kts 342°
2026-04-24 00:35 36.11909 -114.97435 9957 ft 264 kts 342°
2026-04-24 00:35 36.13659 -114.98123 9956 ft 264 kts 342°
2026-04-24 00:35 36.15410 -114.98809 9954 ft 264 kts 342°
2026-04-24 00:36 36.17160 -114.99494 9954 ft 264 kts 342°
2026-04-24 00:36 36.18926 -115.00185 9957 ft 263 kts 342°
2026-04-24 00:36 36.20672 -115.00865 9952 ft 263 kts 342°
2026-04-24 00:36 36.22419 -115.01544 9953 ft 263 kts 342°
2026-04-24 00:37 36.24164 -115.02222 9952 ft 263 kts 342°
2026-04-24 00:37 36.25910 -115.02899 9951 ft 263 kts 342°
2026-04-24 00:37 36.27657 -115.03577 9950 ft 263 kts 342°
2026-04-24 00:37 36.29405 -115.04255 9945 ft 264 kts 342°
2026-04-24 00:38 36.31135 -115.04925 9945 ft 264 kts 342°
2026-04-24 00:38 36.32887 -115.05606 9944 ft 264 kts 342°
2026-04-24 00:38 36.34639 -115.06286 9946 ft 264 kts 342°
2026-04-24 00:38 36.36397 -115.06966 9943 ft 265 kts 342°
2026-04-24 00:39 36.38126 -115.07634 9941 ft 254 kts 342°
2026-04-24 00:39 36.39748 -115.08467 9941 ft 252 kts 325°
2026-04-24 00:39 36.40886 -115.10027 9790 ft 239 kts 298°
2026-04-24 00:39 36.41477 -115.11950 9675 ft 238 kts 285°
2026-04-24 00:40 36.41835 -115.13964 9563 ft 242 kts 282°
2026-04-24 00:40 36.42159 -115.15992 9462 ft 238 kts 282°
2026-04-24 00:40 36.42474 -115.18006 9476 ft 236 kts 282°
2026-04-24 00:40 36.42785 -115.20003 9479 ft 237 kts 282°
2026-04-24 00:41 36.43101 -115.22014 9473 ft 238 kts 282°
2026-04-24 00:41 36.43418 -115.24031 9472 ft 238 kts 282°
2026-04-24 00:41 36.43736 -115.26050 9475 ft 239 kts 282°
2026-04-24 00:41 36.44056 -115.28077 9470 ft 239 kts 282°
2026-04-24 00:42 36.44378 -115.30106 9469 ft 240 kts 282°
2026-04-24 00:42 36.44701 -115.32139 9465 ft 240 kts 282°
2026-04-24 00:42 36.45022 -115.34175 9468 ft 241 kts 282°
2026-04-24 00:42 36.45346 -115.36219 9466 ft 241 kts 282°
2026-04-24 00:43 36.45666 -115.38261 9479 ft 241 kts 281°
2026-04-24 00:43 36.45558 -115.40317 9459 ft 240 kts 253°
2026-04-24 00:43 36.44688 -115.42062 8911 ft 243 kts 226°
2026-04-24 00:43 36.43216 -115.43072 8385 ft 245 kts 196°
2026-04-24 00:44 36.41558 -115.42891 7859 ft 246 kts 157°
2026-04-24 00:44 36.39964 -115.42160 7378 ft 244 kts 161°
2026-04-24 00:44 36.38439 -115.41251 7001 ft 243 kts 148°
2026-04-24 00:44 36.37147 -115.39919 6831 ft 239 kts 135°
2026-04-24 00:45 36.36044 -115.38468 6536 ft 233 kts 133°
2026-04-24 00:45 36.34908 -115.37007 6218 ft 237 kts 134°